Location: Ariel
(45.9570°N, 122.5700°W)
Time: 17:22:36
(UTC-07:00)

A-11 Canister half - Pass Details

Date: 27 August 2019
Orbit: 1513 x 1686 km, 47.2° (Epoch: 18 September)

Event Time Altitude Azimuth Distance (km) Brightness Sun altitude
Rises 21:06:17 0° 277° (W) 4,708 13.0 -11.9°
Reaches altitude 10° 21:09:17 10° 278° (W) 3,743 12.2 -12.3°
Maximum altitude 21:18:51 85° 7° (N) 1,606 9.1 -13.8°
Enters shadow 21:27:29 15° 98° (E) 3,469 10.3 -15.1°
